When you browse on this site, cookies collect data to enhance your experience and personalize the content and advertising you see.
Visit our Privacy Policy to learn more. By continuing to use the site, you agree to this use of cookies and data.
  • En España
  • Lista de países
  • Para 7 días
  • Temperatura del agua
  • El tiempo en el mapa
  • Informadores
  • user-avatar
    Iniciar sesión

    Tiempo cada hora Igls

    Hoy, 4 Abril, Sábado

    Tiempo Temperatura Precipitaciones Viento Presión Humedad
    00:00 +2°C° 0.1 mm 0 mps 685 mmHg 96%
    01:00 +2°C° 0 mm 0 mps 685 mmHg 97%
    02:00 +2°C° 0 mm 0 mps 685 mmHg 96%
    03:00 +2°C° 0 mm 0 mps 685 mmHg 94%
    04:00 +2°C° 0 mm 0 mps 685 mmHg 93%
    05:00 +2°C° 0 mm 0 mps 686 mmHg 90%
    06:00 +2°C° 0 mm 0 mps 686 mmHg 87%
    07:00 +4°C° 0 mm 1 mps 687 mmHg 83%
    08:00 +6°C° 0 mm 1 mps 687 mmHg 78%
    09:00 +7°C° 0 mm 1 mps 687 mmHg 73%
    10:00 +9°C° 0 mm 1 mps 687 mmHg 68%
    11:00 +10°C° 0 mm 1 mps 687 mmHg 65%
    12:00 +11°C° 0 mm 1 mps 687 mmHg 61%
    13:00 +12°C° 0 mm 1 mps 687 mmHg 58%
    14:00 +12°C° 0 mm 1 mps 687 mmHg 58%
    15:00 +12°C° 0 mm 1 mps 687 mmHg 58%
    16:00 +12°C° 0 mm 1 mps 687 mmHg 58%
    17:00 +9°C° 0 mm 1 mps 687 mmHg 67%
    18:00 +7°C° 0 mm 1 mps 687 mmHg 77%
    19:00 +5°C° 0 mm 1 mps 687 mmHg 86%
    20:00 +5°C° 0 mm 1 mps 687 mmHg 85%
    21:00 +4°C° 0 mm 1 mps 688 mmHg 85%
    22:00 +4°C° 0 mm 1 mps 688 mmHg 84%
    23:00 +4°C° 0 mm 1 mps 688 mmHg 83%

    Mañana, 5 Abril, Domingo

    Tiempo Temperatura Precipitaciones Viento Presión Humedad
    00:00 +4°C° 0 mm 1 mps 688 mmHg 82%
    01:00 +3°C° 0 mm 1 mps 689 mmHg 81%
    02:00 +2°C° 0 mm 2 mps 688 mmHg 80%
    03:00 +2°C° 0 mm 2 mps 688 mmHg 79%
    04:00 +2°C° 0 mm 2 mps 688 mmHg 79%
    05:00 +3°C° 0 mm 2 mps 688 mmHg 76%
    06:00 +3°C° 0 mm 2 mps 689 mmHg 73%
    07:00 +4°C° 0 mm 2 mps 689 mmHg 70%
    08:00 +8°C° 0 mm 1 mps 689 mmHg 64%
    09:00 +10°C° 0 mm 1 mps 689 mmHg 57%
    10:00 +13°C° 0 mm 1 mps 690 mmHg 50%
    11:00 +14°C° 0 mm 1 mps 689 mmHg 47%
    12:00 +15°C° 0 mm 1 mps 689 mmHg 44%
    13:00 +16°C° 0 mm 1 mps 689 mmHg 41%
    14:00 +16°C° 0 mm 1 mps 689 mmHg 42%
    15:00 +16°C° 0 mm 2 mps 688 mmHg 44%
    16:00 +16°C° 0 mm 2 mps 688 mmHg 45%
    17:00 +13°C° 0 mm 2 mps 688 mmHg 56%
    18:00 +10°C° 0 mm 2 mps 687 mmHg 67%
    19:00 +7°C° 0 mm 2 mps 687 mmHg 78%
    20:00 +6°C° 0 mm 2 mps 687 mmHg 79%
    21:00 +5°C° 0 mm 3 mps 688 mmHg 81%
    22:00 +4°C° 0 mm 3 mps 688 mmHg 82%
    23:00 +4°C° 0 mm 3 mps 688 mmHg 84%

    Pasado mañana, 6 Abril, Lunes

    Tiempo Temperatura Precipitaciones Viento Presión Humedad
    00:00 +4°C° 0 mm 3 mps 688 mmHg 85%
    01:00 +4°C° 0 mm 3 mps 688 mmHg 87%
    02:00 +3°C° 0 mm 3 mps 689 mmHg 86%
    03:00 +3°C° 0 mm 3 mps 689 mmHg 86%
    04:00 +3°C° 0 mm 3 mps 689 mmHg 85%
    05:00 +4°C° 0 mm 2 mps 689 mmHg 82%
    06:00 +5°C° 0 mm 2 mps 689 mmHg 78%
    07:00 +5°C° 0 mm 2 mps 689 mmHg 74%
    08:00 +8°C° 0 mm 2 mps 690 mmHg 65%
    09:00 +10°C° 0 mm 2 mps 690 mmHg 56%
    10:00 +14°C° 0 mm 1 mps 690 mmHg 47%
    11:00 +15°C° 0 mm 1 mps 690 mmHg 44%
    12:00 +16°C° 0 mm 2 mps 690 mmHg 40%
    13:00 +17°C° 0 mm 2 mps 690 mmHg 36%
    14:00 +17°C° 0 mm 2 mps 690 mmHg 37%
    15:00 +17°C° 0 mm 2 mps 690 mmHg 37%
    16:00 +17°C° 0 mm 2 mps 690 mmHg 38%
    17:00 +14°C° 0 mm 2 mps 689 mmHg 48%
    18:00 +11°C° 0 mm 1 mps 689 mmHg 59%
    19:00 +9°C° 0 mm 1 mps 689 mmHg 70%
    20:00 +8°C° 0 mm 1 mps 689 mmHg 71%
    21:00 +8°C° 0 mm 1 mps 690 mmHg 73%
    22:00 +7°C° 0 mm 1 mps 691 mmHg 74%
    23:00 +7°C° 0 mm 1 mps 691 mmHg 75%

    7 Abril, Martes

    Tiempo Temperatura Precipitaciones Viento Presión Humedad
    00:00 +7°C° 0 mm 1 mps 691 mmHg 75%
    01:00 +6°C° 0 mm 1 mps 691 mmHg 76%
    02:00 +6°C° 0 mm 1 mps 691 mmHg 76%
    03:00 +6°C° 0 mm 1 mps 691 mmHg 75%
    04:00 +6°C° 0 mm 1 mps 691 mmHg 75%
    05:00 +7°C° 0 mm 1 mps 691 mmHg 73%
    06:00 +8°C° 0 mm 1 mps 692 mmHg 71%
    07:00 +8°C° 0 mm 0 mps 692 mmHg 69%
    08:00 +11°C° 0 mm 1 mps 692 mmHg 64%
    09:00 +13°C° 0 mm 1 mps 692 mmHg 58%
    10:00 +15°C° 0 mm 1 mps 692 mmHg 53%
    11:00 +16°C° 0 mm 1 mps 692 mmHg 51%
    12:00 +16°C° 0 mm 1 mps 692 mmHg 48%
    13:00 +18°C° 0 mm 1 mps 692 mmHg 46%
    14:00 +18°C° 0 mm 1 mps 692 mmHg 47%
    15:00 +18°C° 0 mm 1 mps 692 mmHg 48%
    16:00 +18°C° 0 mm 1 mps 692 mmHg 49%
    17:00 +14°C° 0 mm 1 mps 691 mmHg 61%
    18:00 +12°C° 0 mm 1 mps 691 mmHg 74%
    19:00 +8°C° 0 mm 0 mps 690 mmHg 87%
    20:00 +9°C° 0 mm 1 mps 691 mmHg 87%
    21:00 +9°C° 0 mm 1 mps 691 mmHg 88%
    22:00 +8°C° 0 mm 1 mps 692 mmHg 89%
    23:00 +8°C° 0 mm 1 mps 692 mmHg 88%

    8 Abril, Miércoles

    Tiempo Temperatura Precipitaciones Viento Presión Humedad
    00:00 +8°C° 0 mm 1 mps 692 mmHg 87%
    01:00 +8°C° 0 mm 1 mps 692 mmHg 86%
    02:00 +7°C° 0 mm 1 mps 691 mmHg 86%
    03:00 +7°C° 0 mm 1 mps 691 mmHg 85%
    04:00 +7°C° 0 mm 1 mps 691 mmHg 85%
    05:00 +8°C° 0 mm 1 mps 691 mmHg 82%
    06:00 +9°C° 0 mm 1 mps 691 mmHg 78%
    07:00 +9°C° 0 mm 0 mps 692 mmHg 75%
    08:00 +12°C° 0 mm 1 mps 692 mmHg 69%
    09:00 +14°C° 0 mm 1 mps 692 mmHg 62%
    10:00 +16°C° 0 mm 1 mps 692 mmHg 56%
    11:00 +16°C° 0.1 mm 1 mps 692 mmHg 55%
    12:00 +18°C° 0.1 mm 1 mps 691 mmHg 55%
    13:00 +18°C° 0.1 mm 1 mps 691 mmHg 55%
    14:00 +16°C° 0.3 mm 1 mps 691 mmHg 59%
    15:00 +16°C° 0.3 mm 2 mps 690 mmHg 63%
    16:00 +15°C° 0.3 mm 2 mps 690 mmHg 68%
    17:00 +14°C° 0.3 mm 1 mps 690 mmHg 75%
    18:00 +12°C° 0.3 mm 1 mps 690 mmHg 83%
    19:00 +11°C° 0.3 mm 1 mps 689 mmHg 91%
    20:00 +10°C° 0.1 mm 1 mps 690 mmHg 92%
    21:00 +9°C° 0.1 mm 0 mps 690 mmHg 93%
    22:00 +8°C° 0.1 mm 0 mps 690 mmHg 94%
    23:00 +8°C° 0 mm 0 mps 690 mmHg 94%

    9 Abril, Jueves

    Tiempo Temperatura Precipitaciones Viento Presión Humedad
    00:00 +7°C° 0 mm 0 mps 690 mmHg 94%
    01:00 +7°C° 0 mm 0 mps 690 mmHg 94%
    02:00 +7°C° 0 mm 0 mps 690 mmHg 94%
    03:00 +7°C° 0 mm 0 mps 690 mmHg 94%
    04:00 +6°C° 0 mm 0 mps 690 mmHg 94%
    05:00 +7°C° 0 mm 0 mps 690 mmHg 92%
    06:00 +8°C° 0 mm 0 mps 690 mmHg 90%
    07:00 +8°C° 0 mm 0 mps 690 mmHg 89%
    08:00 +11°C° 0 mm 1 mps 690 mmHg 80%
    09:00 +13°C° 0 mm 1 mps 690 mmHg 71%
    10:00 +15°C° 0 mm 1 mps 690 mmHg 63%
    11:00 +16°C° 0 mm 1 mps 690 mmHg 56%
    12:00 +19°C° 0 mm 1 mps 690 mmHg 50%
    13:00 +20°C° 0 mm 1 mps 690 mmHg 44%
    14:00 +18°C° 0 mm 2 mps 690 mmHg 44%
    15:00 +18°C° 0 mm 2 mps 690 mmHg 45%
    16:00 +18°C° 0 mm 2 mps 689 mmHg 46%
    17:00 +16°C° 0 mm 2 mps 689 mmHg 58%
    18:00 +13°C° 0 mm 1 mps 689 mmHg 70%
    19:00 +11°C° 0 mm 1 mps 688 mmHg 82%
    20:00 +10°C° 0 mm 1 mps 689 mmHg 84%
    21:00 +9°C° 0 mm 1 mps 689 mmHg 87%
    22:00 +9°C° 0 mm 1 mps 689 mmHg 89%
    23:00 +9°C° 0 mm 1 mps 689 mmHg 88%
    Mostrar más